TimeEST,TemperatureF,Dew PointF,Humidity,Sea Level PressureIn,VisibilityMPH,Wind Direction,Wind SpeedMPH,Gust SpeedMPH,PrecipitationIn,Events,Conditions,WindDirDegrees,DateUTC
12:10 AM,32.5,32.2,99,30.27,4.0,North,5.8,-,N/A,,Overcast,10,2013-12-07 05:10:00
1:15 AM,32.0,32.0,100,30.27,5.0,North,6.9,-,N/A,,Overcast,10,2013-12-07 06:15:00
1:50 AM,32.0,31.6,99,30.28,10.0,North,8.1,-,N/A,,Overcast,10,2013-12-07 06:50:00
2:15 AM,31.6,31.1,98,30.29,10.0,NNE,6.9,-,N/A,,Overcast,20,2013-12-07 07:15:00
2:35 AM,31.6,30.7,96,30.30,10.0,NNE,5.8,-,N/A,,Overcast,20,2013-12-07 07:35:00
2:55 AM,31.5,30.7,97,30.31,10.0,NNE,4.6,-,N/A,,Overcast,20,2013-12-07 07:55:00
3:15 AM,31.5,30.4,96,30.32,7.0,North,4.6,-,N/A,,Overcast,10,2013-12-07 08:15:00
3:35 AM,31.1,30.2,96,30.33,4.0,NNE,4.6,-,N/A,,Overcast,20,2013-12-07 08:35:00
3:55 AM,31.1,30.9,99,30.34,3.0,Calm,Calm,-,N/A,,Overcast,0,2013-12-07 08:55:00
4:15 AM,31.1,31.1,100,30.34,3.0,North,4.6,-,N/A,,Overcast,360,2013-12-07 09:15:00
4:35 AM,31.1,30.9,99,30.35,5.0,Calm,Calm,-,N/A,,Overcast,0,2013-12-07 09:35:00
4:55 AM,30.9,30.7,99,30.35,3.0,North,3.5,-,N/A,,Overcast,10,2013-12-07 09:55:00
5:10 AM,30.9,30.7,99,30.36,3.0,NNE,4.6,-,N/A,,Overcast,20,2013-12-07 10:10:00
5:40 AM,30.7,30.6,99,30.38,3.0,NNW,3.5,-,N/A,,Overcast,340,2013-12-07 10:40:00
7:35 AM,29.8,29.3,98,30.43,5.0,North,8.1,-,N/A,,Overcast,10,2013-12-07 12:35:00
8:30 AM,29.7,28.6,96,30.45,10.0,NNE,6.9,-,N/A,,Overcast,20,2013-12-07 13:30:00
8:55 AM,29.3,28.6,97,30.47,3.0,North,5.8,-,N/A,Snow,Light Snow,10,2013-12-07 13:55:00
9:10 AM,29.3,28.4,96,30.47,10.0,NNE,5.8,-,N/A,,Overcast,20,2013-12-07 14:10:00
9:35 AM,29.5,28.4,96,30.48,10.0,NNE,6.9,-,N/A,,Overcast,30,2013-12-07 14:35:00
9:55 AM,29.3,28.4,96,30.49,10.0,NNE,8.1,-,N/A,,Overcast,20,2013-12-07 14:55:00
10:15 AM,29.3,28.4,96,30.49,10.0,North,5.8,-,N/A,,Overcast,10,2013-12-07 15:15:00
10:35 AM,29.5,28.6,96,30.50,10.0,North,4.6,-,N/A,,Overcast,10,2013-12-07 15:35:00
10:55 AM,29.5,28.4,96,30.50,10.0,NNE,5.8,-,N/A,,Overcast,20,2013-12-07 15:55:00
11:15 AM,29.5,28.4,96,30.49,10.0,North,5.8,-,N/A,,Overcast,10,2013-12-07 16:15:00
11:35 AM,29.5,28.4,96,30.49,10.0,North,3.5,-,N/A,,Overcast,10,2013-12-07 16:35:00
11:55 AM,29.7,28.4,95,30.49,10.0,NNE,4.6,-,N/A,,Overcast,20,2013-12-07 16:55:00
12:15 PM,30.0,28.6,94,30.48,10.0,NNE,3.5,-,N/A,,Overcast,20,2013-12-07 17:15:00
12:35 PM,30.2,28.6,94,30.47,10.0,North,3.5,-,N/A,,Overcast,10,2013-12-07 17:35:00
12:55 PM,30.2,28.6,94,30.47,10.0,North,4.6,-,N/A,,Overcast,10,2013-12-07 17:55:00
1:15 PM,30.6,28.6,92,30.47,10.0,Calm,Calm,-,N/A,,Overcast,0,2013-12-07 18:15:00
1:35 PM,30.7,28.6,92,30.47,10.0,North,3.5,-,N/A,,Overcast,360,2013-12-07 18:35:00
1:55 PM,30.9,28.4,90,30.47,10.0,North,3.5,-,N/A,,Overcast,360,2013-12-07 18:55:00
2:15 PM,30.4,27.5,89,30.46,10.0,North,8.1,-,N/A,,Overcast,10,2013-12-07 19:15:00
2:35 PM,30.7,27.9,89,30.45,10.0,North,6.9,-,N/A,,Overcast,10,2013-12-07 19:35:00
2:55 PM,30.7,27.9,89,30.45,10.0,North,3.5,-,N/A,,Overcast,360,2013-12-07 19:55:00
3:15 PM,30.6,27.9,90,30.45,10.0,NNE,8.1,-,N/A,,Overcast,20,2013-12-07 20:15:00
3:35 PM,30.2,26.6,86,30.46,10.0,North,6.9,-,N/A,,Overcast,10,2013-12-07 20:35:00
3:55 PM,30.2,26.6,86,30.47,10.0,NNE,5.8,-,N/A,,Overcast,20,2013-12-07 20:55:00
4:15 PM,30.2,26.4,86,30.47,10.0,ENE,9.2,-,N/A,,Overcast,60,2013-12-07 21:15:00
4:35 PM,30.2,26.4,86,30.47,10.0,NNE,5.8,-,N/A,,Overcast,20,2013-12-07 21:35:00
4:55 PM,30.0,26.1,85,30.47,10.0,NNE,8.1,-,N/A,,Overcast,30,2013-12-07 21:55:00
5:15 PM,29.8,26.1,86,30.47,10.0,NNE,5.8,-,N/A,,Overcast,30,2013-12-07 22:15:00
5:35 PM,29.8,25.7,85,30.48,10.0,NNE,6.9,-,N/A,,Overcast,20,2013-12-07 22:35:00
5:55 PM,29.8,25.9,85,30.50,10.0,NNE,3.5,-,N/A,,Overcast,30,2013-12-07 22:55:00
6:15 PM,29.8,25.9,85,30.50,10.0,Calm,Calm,-,N/A,,Overcast,0,2013-12-07 23:15:00
6:35 PM,29.7,26.1,86,30.50,10.0,NNE,4.6,-,N/A,,Overcast,20,2013-12-07 23:35:00
6:55 PM,29.7,26.1,86,30.50,10.0,North,5.8,-,N/A,,Overcast,360,2013-12-07 23:55:00
7:15 PM,29.3,26.1,88,30.50,10.0,NNE,4.6,-,N/A,,Overcast,20,2013-12-08 00:15:00
7:35 PM,29.3,26.4,89,30.50,10.0,NE,4.6,-,N/A,,Overcast,50,2013-12-08 00:35:00
7:55 PM,29.1,26.1,88,30.49,10.0,NE,4.6,-,N/A,,Overcast,50,2013-12-08 00:55:00
8:15 PM,29.1,26.2,89,30.49,10.0,NE,4.6,-,N/A,,Overcast,50,2013-12-08 01:15:00
8:35 PM,29.1,25.7,87,30.50,10.0,ENE,5.8,-,N/A,,Overcast,60,2013-12-08 01:35:00
8:55 PM,29.1,25.7,87,30.49,10.0,NE,5.8,-,N/A,,Overcast,40,2013-12-08 01:55:00
9:15 PM,29.1,25.7,87,30.49,10.0,NNE,6.9,-,N/A,,Overcast,30,2013-12-08 02:15:00
9:35 PM,28.9,25.5,87,30.49,10.0,NE,5.8,-,N/A,,Overcast,50,2013-12-08 02:35:00
9:55 PM,28.9,25.7,88,30.48,10.0,NE,5.8,-,N/A,,Overcast,40,2013-12-08 02:55:00
10:15 PM,28.9,25.9,88,30.48,10.0,NE,8.1,-,N/A,,Overcast,40,2013-12-08 03:15:00
10:35 PM,28.9,25.9,88,30.47,10.0,NE,6.9,-,N/A,,Overcast,40,2013-12-08 03:35:00
10:55 PM,28.4,25.7,90,30.47,10.0,NE,5.8,-,N/A,,Overcast,50,2013-12-08 03:55:00
11:15 PM,28.2,25.7,90,30.46,10.0,NE,4.6,-,N/A,,Overcast,50,2013-12-08 04:15:00
11:35 PM,28.2,25.5,90,30.45,10.0,NNE,6.9,-,N/A,,Overcast,30,2013-12-08 04:35:00
11:55 PM,27.9,25.3,90,30.46,10.0,NE,3.5,-,N/A,,Mostly Cloudy,50,2013-12-08 04:55:00